When you browse on this site, cookies collect data to enhance your experience and personalize the content and advertising you see.
Visit our Privacy Policy to learn more. By continuing to use the site, you agree to this use of cookies and data.
  • En Estados Unidos
  • Lista de países
  • Para 7 días
  • Temperatura del agua
  • Mapa Satelital
  • El tiempo en el mapa
  • Informadores
  • user-avatar
    Iniciar sesión

    Tiempo cada hora Ordino

    Hoy, 13 Diciembre, Jueves

    Tiempo Temperatura Precipitaciones Viento Presión Humedad
    00:00 +1°C° 0 mm 1 mps 628 mmHg 87%
    01:00 +1°C° 0 mm 1 mps 628 mmHg 87%
    02:00 0°C° 0 mm 1 mps 627 mmHg 87%
    03:00 0°C° 0 mm 1 mps 627 mmHg 87%
    04:00 +1°C° 0 mm 1 mps 626 mmHg 86%
    05:00 +1°C° 0 mm 1 mps 626 mmHg 85%
    06:00 +1°C° 0 mm 1 mps 625 mmHg 83%
    07:00 +1°C° 0.3 mm 1 mps 625 mmHg 82%
    08:00 +2°C° 0.3 mm 1 mps 625 mmHg 81%
    09:00 +2°C° 0.3 mm 1 mps 625 mmHg 79%
    10:00 +2°C° 1.2 mm 1 mps 624 mmHg 82%
    11:00 +2°C° 1.2 mm 1 mps 624 mmHg 86%
    12:00 +3°C° 0 mm 1 mps 625 mmHg 83%
    13:00 +3°C° 0.9 mm 1 mps 624 mmHg 85%
    14:00 +2°C° 0.9 mm 1 mps 624 mmHg 88%
    15:00 +1°C° 0.9 mm 2 mps 624 mmHg 90%
    16:00 +1°C° 0.5 mm 2 mps 624 mmHg 91%
    17:00 +1°C° 0.5 mm 2 mps 624 mmHg 92%
    18:00 -1°C° 0.5 mm 2 mps 624 mmHg 93%
    19:00 -1°C° 0.4 mm 2 mps 624 mmHg 92%
    20:00 -1°C° 0.4 mm 2 mps 624 mmHg 91%
    21:00 -1°C° 0.4 mm 3 mps 624 mmHg 91%
    22:00 -1°C° 0.6 mm 3 mps 625 mmHg 90%
    23:00 -1°C° 0.6 mm 3 mps 626 mmHg 90%

    Mañana, 14 Diciembre, Viernes

    Tiempo Temperatura Precipitaciones Viento Presión Humedad
    00:00 -1°C° 0.6 mm 2 mps 626 mmHg 90%
    01:00 -1°C° 0.6 mm 2 mps 626 mmHg 90%
    02:00 -1°C° 0.6 mm 2 mps 627 mmHg 90%
    03:00 -1°C° 0.6 mm 3 mps 627 mmHg 90%
    04:00 -1°C° 0.4 mm 2 mps 627 mmHg 90%
    05:00 -1°C° 0.4 mm 2 mps 628 mmHg 90%
    06:00 -1°C° 0.4 mm 2 mps 628 mmHg 90%
    07:00 -1°C° 0.3 mm 2 mps 629 mmHg 88%
    08:00 +1°C° 0.3 mm 2 mps 629 mmHg 87%
    09:00 0°C° 0.3 mm 3 mps 630 mmHg 86%
    10:00 0°C° 0.1 mm 3 mps 630 mmHg 84%
    11:00 +1°C° 0.1 mm 3 mps 631 mmHg 82%
    12:00 +2°C° 0.1 mm 3 mps 631 mmHg 81%
    13:00 +1°C° 0 mm 3 mps 632 mmHg 81%
    14:00 +1°C° 0 mm 3 mps 632 mmHg 80%
    15:00 +1°C° 0 mm 3 mps 632 mmHg 80%
    16:00 0°C° 0 mm 3 mps 632 mmHg 83%
    17:00 0°C° 0 mm 3 mps 632 mmHg 85%
    18:00 -1°C° 0 mm 3 mps 632 mmHg 88%
    19:00 -1°C° 0 mm 3 mps 633 mmHg 88%
    20:00 -1°C° 0 mm 3 mps 633 mmHg 88%
    21:00 -1°C° 0 mm 3 mps 633 mmHg 87%
    22:00 -2°C° 0 mm 3 mps 633 mmHg 87%
    23:00 -2°C° 0 mm 2 mps 633 mmHg 87%

    Pasado mañana, 15 Diciembre, Sábado

    Tiempo Temperatura Precipitaciones Viento Presión Humedad
    00:00 -2°C° 0 mm 2 mps 633 mmHg 87%
    01:00 -3°C° 0 mm 2 mps 633 mmHg 85%
    02:00 -3°C° 0 mm 2 mps 633 mmHg 84%
    03:00 -3°C° 0 mm 2 mps 633 mmHg 82%
    04:00 -3°C° 0 mm 2 mps 633 mmHg 79%
    05:00 -3°C° 0 mm 2 mps 633 mmHg 76%
    06:00 -3°C° 0 mm 2 mps 632 mmHg 72%
    07:00 -2°C° 0 mm 2 mps 633 mmHg 71%
    08:00 -1°C° 0 mm 2 mps 634 mmHg 69%
    09:00 +3°C° 0 mm 1 mps 635 mmHg 68%
    10:00 +4°C° 0 mm 1 mps 635 mmHg 68%
    11:00 +6°C° 0 mm 1 mps 635 mmHg 69%
    12:00 +7°C° 0 mm 1 mps 636 mmHg 69%
    13:00 +7°C° 0 mm 1 mps 635 mmHg 73%
    14:00 +7°C° 0 mm 1 mps 635 mmHg 76%
    15:00 +7°C° 0 mm 1 mps 634 mmHg 80%
    16:00 +6°C° 0.2 mm 1 mps 634 mmHg 82%
    17:00 +5°C° 0.2 mm 1 mps 634 mmHg 84%
    18:00 +4°C° 0.2 mm 1 mps 634 mmHg 86%
    19:00 +4°C° 0.2 mm 1 mps 634 mmHg 87%
    20:00 +4°C° 0.2 mm 1 mps 634 mmHg 87%
    21:00 +4°C° 0.2 mm 1 mps 633 mmHg 88%
    22:00 +4°C° 0.1 mm 1 mps 633 mmHg 88%
    23:00 +4°C° 0.1 mm 1 mps 633 mmHg 89%

    16 Diciembre, Domingo

    Tiempo Temperatura Precipitaciones Viento Presión Humedad
    00:00 +4°C° 0.1 mm 1 mps 633 mmHg 90%
    01:00 +4°C° 0 mm 1 mps 633 mmHg 90%
    02:00 +4°C° 0 mm 1 mps 632 mmHg 91%
    03:00 +4°C° 0 mm 1 mps 632 mmHg 92%
    04:00 +3°C° 0.2 mm 1 mps 632 mmHg 92%
    05:00 +3°C° 0.2 mm 1 mps 632 mmHg 93%
    06:00 +3°C° 0.2 mm 1 mps 632 mmHg 93%
    07:00 +4°C° 0.1 mm 1 mps 632 mmHg 92%
    08:00 +4°C° 0.1 mm 1 mps 632 mmHg 90%
    09:00 +4°C° 0.1 mm 1 mps 632 mmHg 89%
    10:00 +5°C° 0.1 mm 1 mps 632 mmHg 90%
    11:00 +4°C° 0.1 mm 2 mps 632 mmHg 90%
    12:00 +4°C° 0.1 mm 2 mps 632 mmHg 91%
    13:00 +4°C° 0.1 mm 2 mps 632 mmHg 90%
    14:00 +4°C° 0.1 mm 2 mps 632 mmHg 90%
    15:00 +4°C° 0.1 mm 2 mps 632 mmHg 89%
    16:00 +3°C° 0.1 mm 2 mps 632 mmHg 91%
    17:00 +3°C° 0.1 mm 1 mps 632 mmHg 93%
    18:00 +2°C° 0.1 mm 1 mps 632 mmHg 95%
    19:00 +1°C° 0 mm 2 mps 633 mmHg 94%
    20:00 -1°C° 0 mm 2 mps 633 mmHg 93%
    21:00 -1°C° 0 mm 2 mps 633 mmHg 92%
    22:00 -1°C° 0 mm 2 mps 634 mmHg 90%
    23:00 -1°C° 0 mm 2 mps 634 mmHg 88%

    17 Diciembre, Lunes

    Tiempo Temperatura Precipitaciones Viento Presión Humedad
    00:00 0°C° 0 mm 1 mps 634 mmHg 87%
    01:00 0°C° 0.1 mm 1 mps 634 mmHg 86%
    02:00 -2°C° 0.1 mm 2 mps 634 mmHg 85%
    03:00 -2°C° 0.1 mm 2 mps 634 mmHg 85%
    04:00 -2°C° 0.1 mm 2 mps 634 mmHg 84%
    05:00 -3°C° 0.1 mm 2 mps 634 mmHg 84%
    06:00 -3°C° 0.1 mm 2 mps 634 mmHg 84%
    07:00 -2°C° 0 mm 2 mps 635 mmHg 80%
    08:00 -2°C° 0 mm 2 mps 636 mmHg 77%
    09:00 -1°C° 0 mm 2 mps 636 mmHg 74%
    10:00 +1°C° 0 mm 2 mps 637 mmHg 70%
    11:00 +2°C° 0 mm 2 mps 637 mmHg 65%
    12:00 +3°C° 0 mm 2 mps 638 mmHg 61%
    13:00 +4°C° 0 mm 1 mps 638 mmHg 63%
    14:00 +4°C° 0 mm 1 mps 638 mmHg 64%
    15:00 +4°C° 0 mm 1 mps 637 mmHg 66%
    16:00 +2°C° 0 mm 1 mps 637 mmHg 71%
    17:00 +1°C° 0 mm 1 mps 637 mmHg 75%
    18:00 -1°C° 0 mm 1 mps 637 mmHg 80%
    19:00 -1°C° 0 mm 1 mps 637 mmHg 78%
    20:00 -1°C° 0 mm 1 mps 637 mmHg 76%
    21:00 -1°C° 0 mm 1 mps 637 mmHg 74%
    22:00 -1°C° 0 mm 1 mps 637 mmHg 74%
    23:00 -1°C° 0 mm 1 mps 637 mmHg 74%

    18 Diciembre, Martes

    Tiempo Temperatura Precipitaciones Viento Presión Humedad
    00:00 -2°C° 0 mm 1 mps 636 mmHg 75%
    01:00 -4°C° 0 mm 2 mps 636 mmHg 74%
    02:00 -4°C° 0 mm 2 mps 635 mmHg 73%
    03:00 -4°C° 0 mm 2 mps 635 mmHg 72%
    04:00 -4°C° 0 mm 2 mps 635 mmHg 69%
    05:00 -4°C° 0 mm 2 mps 635 mmHg 65%
    06:00 -3°C° 0 mm 2 mps 634 mmHg 62%
    07:00 -2°C° 0 mm 2 mps 635 mmHg 59%
    08:00 -1°C° 0 mm 3 mps 635 mmHg 57%
    09:00 0°C° 0 mm 3 mps 636 mmHg 54%
    10:00 +1°C° 0 mm 3 mps 636 mmHg 53%
    11:00 +3°C° 0 mm 3 mps 636 mmHg 52%
    12:00 +4°C° 0 mm 3 mps 636 mmHg 51%
    13:00 +4°C° 0 mm 3 mps 635 mmHg 54%
    14:00 +3°C° 0 mm 3 mps 635 mmHg 56%
    15:00 +3°C° 0 mm 3 mps 634 mmHg 59%
    16:00 +3°C° 0.1 mm 2 mps 634 mmHg 63%
    17:00 +2°C° 0.1 mm 2 mps 634 mmHg 68%
    18:00 +1°C° 0.1 mm 2 mps 634 mmHg 73%
    19:00 +1°C° 0.3 mm 2 mps 634 mmHg 76%
    20:00 +1°C° 0.3 mm 2 mps 634 mmHg 78%
    21:00 +1°C° 0.3 mm 2 mps 634 mmHg 81%
    22:00 +1°C° 0.1 mm 2 mps 633 mmHg 83%
    23:00 +1°C° 0.1 mm 2 mps 633 mmHg 85%
    Mostrar más